EW6133 Weather Reports


Display with metric or nautical units.
time (UTC)temp
F
wind
direction
speed
MPH
gust
MPH
rain 1hr
in
rain 24hr
in
rain mn
in
humidity
%
barometer
mb
20260505194102 55 64 1.0 4.0 0.00 0.00 0.00 74 1011.5
20260505193605 55 304 1.0 4.0 0.00 0.00 0.00 73 1011.4
20260505193103 56 29 1.0 5.0 0.00 0.00 0.00 73 1011.3
20260505192603 56 72 1.0 8.0 0.00 0.00 0.00 73 1011.2
20260505192102 56 306 2.0 8.0 0.00 0.00 0.00 72 1011.2
20260505191602 56 329 1.0 5.0 0.00 0.00 0.00 72 1011.0
20260505191104 56 42 1.0 5.0 0.00 0.00 0.00 71 1010.9
20260505190604 56 355 1.0 3.0 0.00 0.00 0.00 70 1010.9
20260505185604 56 5 1.0 8.0 0.00 0.00 0.00 69 1010.9
20260505185104 56 300 1.0 4.0 0.00 0.00 0.00 69 1010.9
20260505184603 56 205 1.0 4.0 0.00 0.00 0.00 69 1010.8
20260505184104 56 186 1.0 3.0 0.00 0.00 0.00 69 1010.8
20260505183602 57 249 1.0 3.0 0.00 0.00 0.00 69 1010.8
20260505183102 57 212 1.0 3.0 0.00 0.00 0.00 68 1010.8
20260505182840 57 221 1.0 3.0 0.00 0.00 0.00 68 1010.8
20260505182106 57 279 1.0 3.0 0.00 0.00 0.00 68 1010.8
20260505181842 57 286 1.0 5.0 0.00 0.00 0.00 68 1010.7
20260505181103 58 5 1.0 5.0 0.00 0.00 0.00 67 1010.7
20260505180557 58 15 1.0 5.0 0.00 0.00 0.00 67 1010.8
20260505180051 58 310 1.0 4.0 0.00 0.00 0.00 68 1010.6
20260505175554 58 355 1.0 3.0 0.00 0.00 0.00 68 1010.7
20260505175049 59 257 1.0 3.0 0.00 0.00 0.00 68 1010.7
20260505174550 59 246 1.0 5.0 0.00 0.00 0.00 68 1010.7
20260505174048 59 30 1.0 6.0 0.00 0.00 0.00 67 1010.7
20260505173549 60 203 1.0 6.0 0.00 0.00 0.00 67 1010.6
20260505173048 60 346 0.0 3.0 0.00 0.00 0.00 66 1010.7
20260505172550 60 256 0.0 2.0 0.00 0.00 0.00 63 1010.6
20260505172049 60 254 0.0 2.0 0.00 0.00 0.00 63 1010.6
20260505171550 60 302 0.0 2.0 0.00 0.00 0.00 62 1010.6
20260505171049 60 234 0.0 2.0 0.00 0.00 0.00 62 1010.6
20260505170549 60 81 0.0 2.0 0.00 0.00 0.00 62 1010.6
20260505170050 60 80 0.0 2.0 0.00 0.00 0.00 62 1010.6
20260505165544 60 264 0.0 2.0 0.00 0.00 0.00 61 1010.7
20260505165045 61 257 0.0 1.0 0.00 0.00 0.00 61 1010.7
20260505164543 61 260 0.0 1.0 0.00 0.00 0.00 60 1010.6
20260505164047 61 259 0.0 2.0 0.00 0.00 0.00 60 1010.6
20260505163545 61 165 0.0 2.0 0.00 0.00 0.00 60 1010.7
20260505163323 61 240 0.0 2.0 0.00 0.00 0.00 59 1010.7
20260505162542 61 263 0.0 2.0 0.00 0.00 0.00 58 1010.7
20260505162324 62 216 0.0 2.0 0.00 0.00 0.00 57 1010.6
20260505161544 62 57 0.0 2.0 0.00 0.00 0.00 58 1010.6
20260505161043 62 69 0.0 2.0 0.00 0.00 0.00 58 1010.6
20260505160543 62 248 0.0 2.0 0.00 0.00 0.00 57 1010.6
20260505153043 63 14 0.0 3.0 0.00 0.00 0.00 55 1010.7
20260505152542 63 333 0.0 2.0 0.00 0.00 0.00 54 1010.7
20260505152042 63 296 0.0 3.0 0.00 0.00 0.00 53 1010.7
20260505151543 63 302 0.0 3.0 0.00 0.00 0.00 53 1010.7
20260505151042 63 175 0.0 2.0 0.00 0.00 0.00 53 1010.7
20260505150544 63 164 0.0 4.0 0.00 0.00 0.00 52 1010.8
20260505150323 64 285 1.0 4.0 0.00 0.00 0.00 51 1010.8
20260505125030 64 52 1.0 6.0 0.00 0.00 0.00 54 1011.3
20260505124524 64 245 1.0 4.0 0.00 0.00 0.00 53 1011.3
20260505124018 64 317 1.0 4.0 0.00 0.00 0.00 52 1011.4
20260505123512 63 36 1.0 3.0 0.00 0.00 0.00 54 1011.3
20260505123015 63 248 1.0 4.0 0.00 0.00 0.00 56 1011.4
20260505122509 63 197 1.0 4.0 0.00 0.00 0.00 55 1011.4
20260505122009 63 279 1.0 3.0 0.00 0.00 0.00 57 1011.4
20260505121510 63 226 0.0 3.0 0.00 0.00 0.00 58 1011.5
20260505121252 62 211 1.0 4.0 0.00 0.00 0.00 59 1011.4
20260505120505 62 211 1.0 4.0 0.00 0.00 0.00 58 1011.5
20260505120005 62 319 1.0 3.0 0.00 0.00 0.00 59 1011.5
20260505115504 62 217 1.0 3.0 0.00 0.00 0.00 59 1011.5
20260505115005 62 45 1.0 3.0 0.00 0.00 0.00 60 1011.6
20260505114504 62 245 1.0 5.0 0.00 0.00 0.00 62 1011.5
20260505114002 62 5 1.0 5.0 0.00 0.00 0.00 61 1011.6
20260505113503 61 223 1.0 3.0 0.00 0.00 0.00 63 1011.6
20260505113005 61 292 1.0 4.0 0.00 0.00 0.00 62 1011.6
20260505112745 61 13 1.0 4.0 0.00 0.00 0.00 63 1011.7
20260505112003 61 241 1.0 3.0 0.00 0.00 0.00 64 1011.7
20260505111505 61 61 1.0 3.0 0.00 0.00 0.00 63 1011.8
20260505111003 61 0 1.0 4.0 0.00 0.00 0.00 63 1011.8
20260505110505 61 213 1.0 6.0 0.00 0.00 0.00 63 1011.8
20260505101742 60 84 1.0 4.0 0.00 0.00 0.00 67 1012.0
20260505101002 59 145 1.0 3.0 0.00 0.00 0.00 68 1012.1
20260505100745 59 257 1.0 3.0 0.00 0.00 0.00 69 1012.2
20260505100004 58 11 1.0 3.0 0.00 0.00 0.00 70 1012.1
20260505095502 58 207 1.0 3.0 0.00 0.00 0.00 70 1012.2
20260505095005 58 261 1.0 4.0 0.00 0.00 0.00 70 1012.3
20260505094505 58 36 1.0 4.0 0.00 0.00 0.00 70 1012.3
20260505094004 58 14 1.0 3.0 0.00 0.00 0.00 70 1012.3
20260505093505 58 217 1.0 2.0 0.00 0.00 0.00 70 1012.3
20260505093005 58 235 0.0 2.0 0.00 0.00 0.00 71 1012.4
20260505092504 58 47 1.0 3.0 0.00 0.00 0.00 72 1012.4
20260505092002 58 236 1.0 4.0 0.00 0.00 0.00 71 1012.3
20260505091503 58 333 1.0 4.0 0.00 0.00 0.00 71 1012.4
20260505091002 58 230 1.0 2.0 0.00 0.00 0.00 72 1012.4
20260505090501 58 61 1.0 5.0 0.00 0.00 0.00 74 1012.4
20260505090000 57 150 1.0 5.0 0.00 0.00 0.00 75 1012.4
20260505085742 56 9 0.0 4.0 0.00 0.00 0.00 76 1012.4
20260505085000 56 208 0.0 2.0 0.00 0.00 0.00 77 1012.4
20260505084459 56 208 1.0 3.0 0.00 0.00 0.00 76 1012.4
20260505084242 56 355 1.0 6.0 0.00 0.00 0.00 78 1012.5
20260505083456 56 50 1.0 6.0 0.00 0.00 0.00 80 1012.4
20260505082959 55 319 1.0 3.0 0.00 0.00 0.00 80 1012.4
20260505082454 55 275 1.0 3.0 0.00 0.00 0.00 81 1012.4
20260505081951 54 236 1.0 3.0 0.00 0.00 0.00 81 1012.4
20260505081450 54 237 0.0 3.0 0.00 0.00 0.00 82 1012.4
20260505080948 54 322 0.0 3.0 0.00 0.00 0.00 83 1012.4
20260505080728 53 338 0.0 3.0 0.00 0.00 0.00 84 1012.5
20260505075948 53 338 0.0 2.0 0.00 0.00 0.00 84 1012.5
20260505075447 53 355 0.0 2.0 0.00 0.00 0.00 84 1012.5
20260505074945 53 14 0.0 2.0 0.00 0.00 0.00 85 1012.5
20260505074446 53 347 0.0 2.0 0.00 0.00 0.00 86 1012.5
20260505073946 53 239 0.0 2.0 0.00 0.00 0.00 86 1012.5
20260505073446 53 239 0.0 2.0 0.00 0.00 0.00 87 1012.5
20260505072940 52 239 0.0 2.0 0.00 0.00 0.00 87 1012.5
20260505072442 52 281 0.0 1.0 0.00 0.00 0.00 88 1012.5
20260505071940 52 281 0.0 1.0 0.00 0.00 0.00 89 1012.5
20260505071442 52 281 0.0 1.0 0.00 0.00 0.00 89 1012.5
20260505070941 52 281 0.0 2.0 0.00 0.00 0.00 89 1012.5
20260505070441 52 281 0.0 2.0 0.00 0.00 0.00 89 1012.6
20260505065942 51 281 0.0 4.0 0.00 0.00 0.00 90 1012.6
20260505065718 51 246 0.0 4.0 0.00 0.00 0.00 90 1012.6
20260505064942 51 41 0.0 3.0 0.00 0.00 0.00 91 1012.6
20260505064438 51 169 0.0 1.0 0.00 0.00 0.00 91 1012.7
20260505063935 51 169 0.0 1.0 0.00 0.00 0.00 91 1012.7
20260505063437 51 169 0.0 1.0 0.00 0.00 0.00 91 1012.7
20260505062937 51 105 0.0 1.0 0.00 0.00 0.00 91 1012.7
20260505062433 50 104 0.0 1.0 0.00 0.00 0.00 91 1012.7
20260505062208 50 104 0.0 1.0 0.00 0.00 0.00 92 1012.7
20260505061708 50 104 0.0 1.0 0.00 0.00 0.00 92 1012.7
20260505060933 50 104 0.0 1.0 0.00 0.00 0.00 92 1012.7
20260505060433 50 36 0.0 1.0 0.00 0.00 0.00 91 1012.7
20260505055931 50 36 0.0 1.0 0.00 0.00 0.00 92 1012.8
20260505055431 50 36 0.0 1.0 0.00 0.00 0.00 92 1012.8
20260505054932 50 36 0.0 1.0 0.00 0.00 0.00 92 1012.8
20260505054432 50 36 0.0 0.0 0.00 0.00 0.00 92 1012.8
20260505054214 50 36 0.0 0.0 0.00 0.00 0.00 92 1012.7
20260505053703 50 36 0.0 0.0 0.00 0.00 0.00 92 1012.8
20260505052921 49 36 0.0 0.0 0.00 0.00 0.00 92 1012.8
20260505052413 49 36 0.0 0.0 0.00 0.00 0.00 92 1012.8
20260505051906 49 36 0.0 0.0 0.00 0.00 0.00 92 1012.8
20260505051409 49 36 0.0 0.0 0.00 0.00 0.00 92 1012.8
20260505050908 49 36 0.0 0.0 0.00 0.00 0.00 92 1012.8
20260505050646 49 36 0.0 0.0 0.00 0.00 0.00 92 1012.7
20260505050143 49 36 0.0 0.0 0.00 0.00 0.00 92 1012.7
20260505041643 49 36 0.0 0.0 0.00 0.00 0.00 92 1012.8
20260505040903 49 36 0.0 0.0 0.00 0.00 0.00 92 1012.8
20260505040403 49 36 0.0 0.0 0.00 0.00 0.00 92 1012.8
20260505035902 49 36 0.0 0.0 0.00 0.00 0.00 92 1012.8
20260505035403 49 36 0.0 0.0 0.00 0.00 0.00 92 1012.8
20260505034902 49 36 0.0 0.0 0.00 0.00 0.00 92 1012.8
20260505034402 49 36 0.0 0.0 0.00 0.00 0.00 92 1012.8
20260505034140 49 36 0.0 0.0 0.00 0.00 0.00 92 1012.8
20260505033403 49 36 0.0 0.0 0.00 0.00 0.00 92 1012.9
20260505032903 49 36 0.0 0.0 0.00 0.00 0.00 92 1013.0
20260505032639 49 36 0.0 0.0 0.00 0.00 0.00 92 1013.0
20260505031902 49 36 0.0 0.0 0.00 0.00 0.00 92 1013.0
20260505031402 49 36 0.0 1.0 0.00 0.00 0.00 92 1012.9
20260505030903 49 36 0.0 1.0 0.00 0.00 0.00 92 1012.9
20260505030403 49 36 0.0 1.0 0.00 0.00 0.00 91 1013.0
20260505025904 49 36 0.0 0.0 0.00 0.00 0.00 91 1013.1
20260505025405 49 36 0.0 0.0 0.00 0.00 0.00 91 1013.0
20260505024904 49 36 0.0 1.0 0.00 0.00 0.00 91 1012.9
20260505024402 49 36 0.0 1.0 0.00 0.00 0.00 91 1012.8
20260505023904 49 36 0.0 0.0 0.00 0.00 0.00 90 1012.9
20260505023404 49 36 0.0 0.0 0.00 0.00 0.00 90 1013.0
20260505023143 50 36 0.0 0.0 0.00 0.00 0.00 90 1012.9
20260505022403 50 36 0.0 0.0 0.00 0.00 0.00 90 1012.9
20260505021901 50 36 0.0 0.0 0.00 0.00 0.00 90 1012.9
20260505021402 50 36 0.0 1.0 0.00 0.00 0.00 90 1012.9
20260505021137 50 36 0.0 1.0 0.00 0.00 0.00 90 1013.0
20260505020642 51 36 0.0 1.0 0.00 0.00 0.00 89 1013.0
20260505015903 51 36 0.0 1.0 0.00 0.00 0.00 90 1013.1
20260505015402 51 36 0.0 2.0 0.00 0.00 0.00 90 1013.2
20260505015138 51 36 0.0 2.0 0.00 0.00 0.00 90 1013.2
20260505014404 51 36 0.0 0.0 0.00 0.00 0.00 90 1013.2
20260505013904 51 36 0.0 0.0 0.00 0.00 0.00 90 1013.3
20260505013404 51 36 0.0 0.0 0.00 0.00 0.00 90 1013.3
20260505012902 51 36 0.0 0.0 0.00 0.00 0.00 90 1013.4
20260505012402 51 36 0.0 1.0 0.00 0.00 0.00 90 1013.4
20260505011901 51 36 0.0 1.0 0.00 0.00 0.00 90 1013.4
20260505011403 51 36 0.0 0.0 0.00 0.00 0.00 90 1013.3
20260505010902 51 36 0.0 0.0 0.00 0.00 0.00 90 1013.4
20260505010405 51 36 0.0 1.0 0.00 0.00 0.00 90 1013.4
20260505005903 51 36 0.0 1.0 0.00 0.00 0.00 89 1013.4
20260505005405 51 36 0.0 1.0 0.00 0.00 0.00 89 1013.4
20260505005140 51 312 0.0 0.0 0.00 0.00 0.00 89 1013.4
20260505004402 51 312 0.0 0.0 0.00 0.00 0.00 89 1013.3
20260505003901 51 312 0.0 0.0 0.00 0.00 0.00 89 1013.3
20260505003401 51 312 0.0 0.0 0.00 0.00 0.00 88 1013.4
20260505002902 51 312 0.0 0.0 0.00 0.00 0.00 88 1013.6
20260505002403 51 312 0.0 0.0 0.00 0.00 0.00 88 1013.6
20260505001902 52 312 0.0 0.0 0.00 0.00 0.00 87 1013.6
20260505001401 52 312 0.0 0.0 0.00 0.00 0.00 87 1013.7
20260505000904 52 312 0.0 0.0 0.00 0.00 0.00 87 1013.8
20260505000405 52 312 0.0 0.0 0.00 0.00 0.00 87 1013.8
20260504235903 52 312 0.0 0.0 0.00 0.00 0.00 87 1013.9
20260504235403 52 312 0.0 0.0 0.00 0.00 0.00 86 1013.9
20260504234903 52 312 0.0 0.0 0.00 0.00 0.00 87 1013.9
20260504234402 53 312 0.0 0.0 0.00 0.00 0.00 86 1013.9
20260504233903 53 312 0.0 0.0 0.00 0.00 0.00 86 1013.9
20260504233642 53 312 0.0 0.0 0.00 0.00 0.00 86 1013.9
20260504232904 53 312 0.0 0.0 0.00 0.00 0.00 86 1013.9
20260504232402 53 311 0.0 0.0 0.00 0.00 0.00 86 1013.9
20260504231903 53 311 0.0 0.0 0.00 0.00 0.00 86 1013.9
20260504231402 53 311 0.0 0.0 0.00 0.00 0.00 86 1013.9
20260504230903 53 311 0.0 1.0 0.00 0.00 0.00 86 1013.9
20260504230402 53 311 0.0 1.0 0.00 0.00 0.00 85 1013.9
20260504225903 53 311 0.0 1.0 0.00 0.00 0.00 85 1013.8
20260504225640 53 311 0.0 1.0 0.00 0.00 0.00 85 1013.9
20260504224903 53 298 0.0 2.0 0.00 0.00 0.00 85 1013.9
20260504224405 53 298 0.0 3.0 0.00 0.00 0.00 85 1013.9
20260504223902 53 323 0.0 3.0 0.00 0.00 0.00 85 1014.0
20260504223403 53 21 0.0 1.0 0.00 0.00 0.00 85 1014.1
20260504223141 53 80 0.0 1.0 0.00 0.00 0.00 85 1014.1
20260504222404 53 80 0.0 1.0 0.00 0.00 0.00 85 1014.1
20260504221903 53 80 0.0 1.0 0.00 0.00 0.00 84 1014.1
20260504221638 53 79 0.0 1.0 0.00 0.00 0.00 84 1014.2
20260504220903 53 79 0.0 1.0 0.00 0.00 0.00 84 1014.2
20260504220404 54 218 0.0 1.0 0.00 0.00 0.00 84 1014.2
20260504215904 54 218 0.0 2.0 0.00 0.00 0.00 84 1014.2
20260504215402 54 218 0.0 2.0 0.00 0.00 0.00 84 1014.1
20260504214904 54 134 0.0 2.0 0.00 0.00 0.00 84 1014.0
20260504214402 54 317 0.0 2.0 0.00 0.00 0.00 84 1014.0
20260504213905 54 89 0.0 1.0 0.00 0.00 0.00 84 1014.1
20260504213405 54 97 0.0 2.0 0.00 0.00 0.00 84 1014.1
20260504212920 54 160 1.0 2.0 0.00 0.00 0.00 84 1014.1
20260504212914 54 96 0.0 2.0 0.00 0.00 0.00 84 1014.1
20260504211927 54 29 0.0 1.0 0.00 0.00 0.00 84 1014.1
20260504211919 54 44 0.0 2.0 0.00 0.00 0.00 84 1014.1
20260504210904 54 153 0.0 2.0 0.00 0.00 0.00 84 1014.1
20260504210639 54 151 0.0 2.0 0.00 0.00 0.00 84 1014.2
20260504205903 54 96 0.0 3.0 0.00 0.00 0.00 84 1014.2
20260504205402 55 247 0.0 3.0 0.00 0.00 0.00 84 1014.1
20260504204902 55 248 0.0 3.0 0.00 0.00 0.00 83 1014.2
20260504204642 55 229 0.0 3.0 0.00 0.00 0.00 83 1014.2
20260504203904 55 235 0.0 1.0 0.00 0.00 0.00 83 1014.2
20260504203403 55 297 0.0 1.0 0.00 0.00 0.00 83 1014.2
20260504202904 55 288 0.0 1.0 0.00 0.00 0.00 83 1014.2
20260504202403 55 327 0.0 1.0 0.00 0.00 0.00 83 1014.1
20260504201904 55 323 0.0 2.0 0.00 0.00 0.00 83 1014.2
20260504201643 55 212 0.0 2.0 0.00 0.00 0.00 83 1014.2
20260504201142 55 43 0.0 1.0 0.00 0.00 0.00 83 1014.1
20260504200429 56 63 0.0 2.0 0.00 0.00 0.00 82 1014.0
20260504200421 55 63 0.0 1.0 0.00 0.00 0.00 82 1014.1
20260504195640 56 63 0.0 2.0 0.00 0.00 0.00 83 1014.0
20260504194905 56 195 0.0 2.0 0.00 0.00 0.00 83 1014.0
20260504194406 56 195 0.0 2.0 0.00 0.00 0.00 83 1013.9